| time (UTC) | temp F | wind direction | speed knots | gust knots | rain 1hr in | rain 24hr in | rain mn in | humidity % | barometer mb |
| 20260505181909 | 83 | 121 | 3.5 | 7.8 | 0.00 | 0.00 | 0.00 | 39 | 1009.3 |
| 20260505181406 | 83 | 228 | 9.6 | 12.2 | 0.00 | 0.00 | 0.00 | 39 | 1008.8 |
| 20260505180903 | 84 | 250 | 1.7 | 1.7 | 0.00 | 0.00 | 0.00 | 42 | 1008.9 |
| 20260505180359 | 84 | 210 | 3.5 | 4.3 | 0.00 | 0.00 | 0.00 | 39 | 1009.0 |
| 20260505175856 | 83 | 122 | 2.6 | 5.2 | 0.00 | 0.00 | 0.00 | 39 | 1009.1 |
| 20260505175352 | 84 | 229 | 3.5 | 7.0 | 0.00 | 0.00 | 0.00 | 39 | 1009.1 |
| 20260505174849 | 83 | 141 | 1.7 | 1.7 | 0.00 | 0.00 | 0.00 | 42 | 1009.2 |
| 20260505174347 | 85 | 175 | 4.3 | 6.1 | 0.00 | 0.00 | 0.00 | 43 | 1009.0 |
| 20260505173842 | 84 | 236 | 0.9 | 0.9 | 0.00 | 0.00 | 0.00 | 41 | 1009.2 |
| 20260505173338 | 84 | 181 | 0.9 | 1.7 | 0.00 | 0.00 | 0.00 | 41 | 1009.1 |
| 20260505172830 | 83 | 306 | 3.5 | 5.2 | 0.00 | 0.00 | 0.00 | 39 | 1009.3 |
| 20260505172327 | 83 | 240 | 3.5 | 4.3 | 0.00 | 0.00 | 0.00 | 41 | 1009.3 |
| 20260505171821 | 82 | 157 | 2.6 | 4.3 | 0.00 | 0.00 | 0.00 | 43 | 1009.5 |
| 20260505171319 | 82 | 231 | 4.3 | 5.2 | 0.00 | 0.00 | 0.00 | 43 | 1009.5 |
| 20260505170815 | 83 | 201 | 0.9 | 1.7 | 0.00 | 0.00 | 0.00 | 44 | 1009.6 |
| 20260505170312 | 82 | 151 | 3.5 | 5.2 | 0.00 | 0.00 | 0.00 | 44 | 1009.6 |
| 20260505165807 | 82 | 204 | 3.5 | 7.0 | 0.00 | 0.00 | 0.00 | 43 | 1009.6 |
| 20260505165306 | 82 | 166 | 1.7 | 4.3 | 0.00 | 0.00 | 0.00 | 44 | 1009.6 |
| 20260505164759 | 83 | 224 | 0.9 | 1.7 | 0.00 | 0.00 | 0.00 | 45 | 1009.7 |
| 20260505164256 | 81 | 213 | 0.0 | 0.9 | 0.00 | 0.00 | 0.00 | 46 | 1009.9 |
| 20260505163755 | 82 | 177 | 3.5 | 5.2 | 0.00 | 0.00 | 0.00 | 45 | 1009.9 |
| 20260505163253 | 82 | 92 | 0.9 | 0.9 | 0.00 | 0.00 | 0.00 | 46 | 1009.9 |
| 20260505162750 | 82 | 274 | 1.7 | 1.7 | 0.00 | 0.00 | 0.00 | 46 | 1010.1 |
| 20260505162247 | 82 | 175 | 0.9 | 2.6 | 0.00 | 0.00 | 0.00 | 47 | 1010.0 |
| 20260505161744 | 82 | 175 | 2.6 | 4.3 | 0.00 | 0.00 | 0.00 | 45 | 1010.2 |
| 20260505161241 | 80 | 138 | 0.9 | 0.9 | 0.00 | 0.00 | 0.00 | 48 | 1010.2 |
| 20260505160738 | 80 | 251 | 3.5 | 4.3 | 0.00 | 0.00 | 0.00 | 47 | 1010.1 |
| 20260505160236 | 79 | 261 | 3.5 | 5.2 | 0.00 | 0.00 | 0.00 | 47 | 1010.3 |
| 20260505153215 | 78 | 200 | 1.7 | 1.7 | 0.00 | 0.00 | 0.00 | 50 | 1010.8 |
| 20260505152712 | 77 | 207 | 1.7 | 2.6 | 0.00 | 0.00 | 0.00 | 51 | 1010.7 |
| 20260505152209 | 76 | 111 | 1.7 | 1.7 | 0.00 | 0.00 | 0.00 | 52 | 1010.8 |
| 20260505151703 | 76 | 201 | 7.0 | 8.7 | 0.00 | 0.00 | 0.00 | 53 | 1010.8 |
| 20260505151201 | 75 | 194 | 4.3 | 5.2 | 0.00 | 0.00 | 0.00 | 54 | 1010.9 |
| 20260505150657 | 76 | 179 | 5.2 | 7.8 | 0.00 | 0.00 | 0.00 | 53 | 1010.8 |
| 20260505150155 | 76 | 211 | 2.6 | 2.6 | 0.00 | 0.00 | 0.00 | 53 | 1010.8 |
| 20260505140622 | 73 | 210 | 0.9 | 1.7 | 0.00 | 0.00 | 0.00 | 58 | 1011.5 |
| 20260505140119 | 72 | 202 | 2.6 | 2.6 | 0.00 | 0.00 | 0.00 | 60 | 1011.2 |
| 20260505125036 | 67 | 236 | 2.6 | 2.6 | 0.00 | 0.00 | 0.00 | 65 | 1011.3 |
| 20260505124533 | 66 | 239 | 1.7 | 2.6 | 0.00 | 0.00 | 0.00 | 68 | 1011.0 |
| 20260505124029 | 66 | 183 | 1.7 | 1.7 | 0.00 | 0.00 | 0.00 | 70 | 1011.1 |
| 20260505123525 | 65 | 183 | 0.9 | 0.9 | 0.00 | 0.00 | 0.00 | 71 | 1010.5 |
| 20260505123021 | 64 | 142 | 4.3 | 6.1 | 0.00 | 0.00 | 0.00 | 70 | 1010.8 |
| 20260505122519 | 64 | 143 | 0.9 | 0.9 | 0.00 | 0.00 | 0.00 | 72 | 1010.9 |
| 20260505122016 | 64 | 180 | 2.6 | 2.6 | 0.00 | 0.00 | 0.00 | 73 | 1010.8 |
| 20260505121512 | 63 | 174 | 1.7 | 1.7 | 0.00 | 0.00 | 0.00 | 75 | 1011.1 |
| 20260505121009 | 62 | 200 | 1.7 | 2.6 | 0.00 | 0.00 | 0.00 | 77 | 1011.1 |
| 20260505120505 | 61 | 159 | 2.6 | 2.6 | 0.00 | 0.00 | 0.00 | 81 | 1011.1 |
| 20260505120006 | 59 | 161 | 4.3 | 6.1 | 0.00 | 0.00 | 0.00 | 86 | 1011.0 |
| 20260505115501 | 57 | 176 | 0.0 | 0.9 | 0.00 | 0.00 | 0.00 | 90 | 1011.2 |
| 20260505114959 | 56 | 160 | 0.9 | 0.9 | 0.00 | 0.00 | 0.00 | 92 | 1011.3 |
| 20260505114455 | 56 | 148 | 0.0 | 0.9 | 0.00 | 0.00 | 0.00 | 93 | 1011.0 |
| 20260505113952 | 55 | 192 | 1.7 | 2.6 | 0.00 | 0.00 | 0.00 | 94 | 1011.3 |
| 20260505113448 | 55 | 165 | 0.0 | 0.0 | 0.00 | 0.00 | 0.00 | 94 | 1011.3 |
| 20260505112944 | 54 | 165 | 0.0 | 0.0 | 0.00 | 0.00 | 0.00 | 94 | 1011.2 |
| 20260505112441 | 54 | 164 | 0.9 | 0.9 | 0.00 | 0.00 | 0.00 | 94 | 1011.1 |
| 20260505111937 | 54 | 180 | 0.0 | 0.0 | 0.00 | 0.00 | 0.00 | 95 | 1011.2 |
| 20260505111432 | 54 | 181 | 0.0 | 0.0 | 0.00 | 0.00 | 0.00 | 95 | 1011.2 |
| 20260505110929 | 54 | 182 | 0.9 | 1.7 | 0.00 | 0.00 | 0.00 | 96 | 1010.8 |
| 20260505110426 | 54 | 235 | 0.0 | 0.0 | 0.00 | 0.00 | 0.00 | 96 | 1011.1 |
| 20260505101857 | 50 | 276 | 0.0 | 0.9 | 0.00 | 0.00 | 0.00 | 96 | 1011.0 |
| 20260505101351 | 49 | 256 | 0.0 | 0.0 | 0.00 | 0.00 | 0.00 | 96 | 1011.0 |
| 20260505100848 | 49 | 265 | 0.0 | 0.9 | 0.00 | 0.00 | 0.00 | 96 | 1010.9 |
| 20260505100344 | 49 | 256 | 0.0 | 0.0 | 0.00 | 0.00 | 0.00 | 96 | 1010.8 |
| 20260505095840 | 49 | 257 | 0.0 | 0.0 | 0.00 | 0.00 | 0.00 | 96 | 1010.7 |
| 20260505095338 | 49 | 273 | 0.0 | 0.0 | 0.00 | 0.00 | 0.00 | 96 | 1010.6 |
| 20260505094833 | 49 | 267 | 0.0 | 0.0 | 0.00 | 0.00 | 0.00 | 96 | 1010.7 |
| 20260505094331 | 48 | 261 | 0.0 | 0.0 | 0.00 | 0.00 | 0.00 | 96 | 1010.5 |
| 20260505093826 | 49 | 261 | 0.0 | 0.0 | 0.00 | 0.00 | 0.00 | 96 | 1010.6 |
| 20260505093324 | 48 | 271 | 0.0 | 0.9 | 0.00 | 0.00 | 0.00 | 96 | 1010.1 |
| 20260505092820 | 49 | 265 | 0.0 | 0.0 | 0.00 | 0.00 | 0.00 | 96 | 1010.4 |
| 20260505092319 | 48 | 235 | 0.0 | 0.0 | 0.00 | 0.00 | 0.00 | 96 | 1010.4 |
| 20260505091816 | 49 | 235 | 0.0 | 0.0 | 0.00 | 0.00 | 0.00 | 96 | 1010.3 |
| 20260505091314 | 48 | 235 | 0.0 | 0.0 | 0.00 | 0.00 | 0.00 | 95 | 1010.4 |
| 20260505090812 | 48 | 235 | 0.0 | 0.0 | 0.00 | 0.00 | 0.00 | 95 | 1010.1 |
| 20260505090310 | 49 | 235 | 0.0 | 0.0 | 0.00 | 0.00 | 0.00 | 95 | 1010.2 |
| 20260505085807 | 49 | 235 | 0.0 | 0.0 | 0.00 | 0.00 | 0.00 | 95 | 1010.2 |
| 20260505085305 | 49 | 235 | 0.0 | 0.0 | 0.00 | 0.00 | 0.00 | 95 | 1010.1 |
| 20260505084802 | 49 | 235 | 0.0 | 0.0 | 0.00 | 0.00 | 0.00 | 95 | 1010.1 |
| 20260505084301 | 49 | 234 | 0.0 | 0.0 | 0.00 | 0.00 | 0.00 | 94 | 1010.2 |
| 20260505083757 | 49 | 235 | 0.0 | 0.0 | 0.00 | 0.00 | 0.00 | 94 | 1010.1 |
| 20260505083254 | 49 | 234 | 0.0 | 0.0 | 0.00 | 0.00 | 0.00 | 94 | 1010.2 |
| 20260505082750 | 49 | 234 | 0.0 | 0.0 | 0.00 | 0.00 | 0.00 | 94 | 1010.1 |
| 20260505082247 | 49 | 234 | 0.0 | 0.0 | 0.00 | 0.00 | 0.00 | 93 | 1010.1 |
| 20260505081743 | 49 | 234 | 0.0 | 0.0 | 0.00 | 0.00 | 0.00 | 93 | 1010.2 |
| 20260505081241 | 49 | 234 | 0.0 | 0.0 | 0.00 | 0.00 | 0.00 | 92 | 1010.1 |
| 20260505080737 | 50 | 234 | 0.0 | 0.0 | 0.00 | 0.00 | 0.00 | 92 | 1010.1 |
| 20260505080233 | 50 | 233 | 0.0 | 0.0 | 0.00 | 0.00 | 0.00 | 91 | 1010.4 |
| 20260505075728 | 50 | 233 | 0.0 | 0.0 | 0.00 | 0.00 | 0.00 | 91 | 1010.3 |
| 20260505075226 | 50 | 234 | 0.0 | 0.0 | 0.00 | 0.00 | 0.00 | 90 | 1010.3 |
| 20260505074723 | 50 | 232 | 0.0 | 0.0 | 0.00 | 0.00 | 0.00 | 90 | 1010.2 |
| 20260505074220 | 50 | 233 | 0.0 | 0.0 | 0.00 | 0.00 | 0.00 | 90 | 1010.2 |
| 20260505073718 | 50 | 228 | 0.0 | 0.0 | 0.00 | 0.00 | 0.00 | 89 | 1010.3 |
| 20260505073216 | 50 | 228 | 0.0 | 0.0 | 0.00 | 0.00 | 0.00 | 89 | 1010.1 |
| 20260505072712 | 50 | 228 | 0.0 | 0.0 | 0.00 | 0.00 | 0.00 | 89 | 1010.2 |
| 20260505072208 | 50 | 228 | 0.0 | 0.0 | 0.00 | 0.00 | 0.00 | 89 | 1010.1 |
| 20260505071704 | 50 | 228 | 0.0 | 0.0 | 0.00 | 0.00 | 0.00 | 88 | 1010.1 |
| 20260505071201 | 50 | 228 | 0.0 | 0.0 | 0.00 | 0.00 | 0.00 | 88 | 1009.9 |
| 20260505070659 | 50 | 228 | 0.0 | 0.0 | 0.00 | 0.00 | 0.00 | 88 | 1010.1 |
| 20260505070154 | 50 | 227 | 0.0 | 0.0 | 0.00 | 0.00 | 0.00 | 88 | 1010.2 |
| 20260505065651 | 50 | 227 | 0.0 | 0.0 | 0.00 | 0.00 | 0.00 | 88 | 1010.1 |
| 20260505065148 | 50 | 227 | 0.0 | 0.0 | 0.00 | 0.00 | 0.00 | 87 | 1010.2 |
| 20260505064644 | 50 | 227 | 0.0 | 0.0 | 0.00 | 0.00 | 0.00 | 87 | 1010.4 |
| 20260505064142 | 50 | 227 | 0.0 | 0.0 | 0.00 | 0.00 | 0.00 | 87 | 1010.2 |
| 20260505063640 | 50 | 227 | 0.0 | 0.0 | 0.00 | 0.00 | 0.00 | 87 | 1010.2 |
| 20260505063136 | 50 | 227 | 0.0 | 0.0 | 0.00 | 0.00 | 0.00 | 86 | 1010.2 |
| 20260505062633 | 50 | 227 | 0.0 | 0.0 | 0.00 | 0.00 | 0.00 | 86 | 1010.4 |
| 20260505062130 | 50 | 227 | 0.0 | 0.0 | 0.00 | 0.00 | 0.00 | 85 | 1010.2 |
| 20260505061626 | 50 | 227 | 0.0 | 0.0 | 0.00 | 0.00 | 0.00 | 85 | 1010.4 |
| 20260505061124 | 50 | 227 | 0.0 | 0.0 | 0.00 | 0.00 | 0.00 | 85 | 1010.5 |
| 20260505060622 | 50 | 227 | 0.0 | 0.0 | 0.00 | 0.00 | 0.00 | 84 | 1010.5 |
| 20260505060119 | 51 | 227 | 0.0 | 0.0 | 0.00 | 0.00 | 0.00 | 84 | 1010.5 |
| 20260505055614 | 51 | 227 | 0.0 | 0.0 | 0.00 | 0.00 | 0.00 | 84 | 1010.5 |
| 20260505055110 | 51 | 227 | 0.0 | 0.0 | 0.00 | 0.00 | 0.00 | 83 | 1010.4 |
| 20260505054608 | 51 | 227 | 0.0 | 0.0 | 0.00 | 0.00 | 0.00 | 83 | 1010.6 |
| 20260505054106 | 51 | 227 | 0.0 | 0.0 | 0.00 | 0.00 | 0.00 | 82 | 1010.7 |
| 20260505053603 | 52 | 227 | 0.0 | 0.0 | 0.00 | 0.00 | 0.00 | 81 | 1010.4 |
| 20260505053059 | 52 | 227 | 0.0 | 0.0 | 0.00 | 0.00 | 0.00 | 80 | 1010.5 |
| 20260505052556 | 53 | 228 | 0.0 | 0.0 | 0.00 | 0.00 | 0.00 | 79 | 1010.6 |
| 20260505052054 | 53 | 229 | 0.0 | 0.0 | 0.00 | 0.00 | 0.00 | 78 | 1010.9 |
| 20260505051551 | 53 | 222 | 0.0 | 0.0 | 0.00 | 0.00 | 0.00 | 78 | 1010.7 |
| 20260505051049 | 53 | 222 | 0.0 | 0.0 | 0.00 | 0.00 | 0.00 | 77 | 1010.5 |
| 20260505050547 | 53 | 222 | 0.0 | 0.0 | 0.00 | 0.00 | 0.00 | 77 | 1010.7 |
| 20260505041514 | 54 | 213 | 0.0 | 0.0 | 0.00 | 0.00 | 0.00 | 74 | 1010.9 |
| 20260505041012 | 53 | 213 | 0.0 | 0.0 | 0.00 | 0.00 | 0.00 | 74 | 1010.7 |
| 20260505040509 | 53 | 212 | 0.0 | 0.0 | 0.00 | 0.00 | 0.00 | 74 | 1010.9 |
| 20260505040006 | 53 | 212 | 0.0 | 0.0 | 0.00 | 0.00 | 0.00 | 73 | 1010.8 |
| 20260505035502 | 54 | 212 | 0.0 | 0.0 | 0.00 | 0.00 | 0.00 | 73 | 1010.7 |
| 20260505034959 | 54 | 212 | 0.0 | 0.0 | 0.00 | 0.00 | 0.00 | 72 | 1010.7 |
| 20260505034455 | 55 | 212 | 0.0 | 0.0 | 0.00 | 0.00 | 0.00 | 70 | 1010.6 |
| 20260505033953 | 55 | 212 | 0.0 | 0.0 | 0.00 | 0.00 | 0.00 | 69 | 1010.8 |
| 20260505033449 | 55 | 212 | 0.0 | 0.0 | 0.00 | 0.00 | 0.00 | 69 | 1010.8 |
| 20260505032948 | 55 | 212 | 0.0 | 0.0 | 0.00 | 0.00 | 0.00 | 69 | 1010.8 |
| 20260505032444 | 54 | 212 | 0.0 | 0.0 | 0.00 | 0.00 | 0.00 | 70 | 1010.5 |
| 20260505031941 | 55 | 212 | 0.0 | 0.0 | 0.00 | 0.00 | 0.00 | 70 | 1010.9 |
| 20260505031438 | 55 | 212 | 0.0 | 0.0 | 0.00 | 0.00 | 0.00 | 69 | 1010.9 |
| 20260505030935 | 55 | 212 | 0.0 | 0.0 | 0.00 | 0.00 | 0.00 | 69 | 1011.0 |
| 20260505030431 | 56 | 213 | 0.0 | 0.0 | 0.00 | 0.00 | 0.00 | 66 | 1010.9 |
| 20260505025926 | 56 | 214 | 0.0 | 0.0 | 0.00 | 0.00 | 0.00 | 65 | 1010.7 |
| 20260505025424 | 56 | 204 | 0.0 | 0.0 | 0.00 | 0.00 | 0.00 | 67 | 1010.8 |
| 20260505024923 | 56 | 204 | 0.0 | 0.0 | 0.00 | 0.00 | 0.00 | 66 | 1010.9 |
| 20260505024420 | 56 | 202 | 0.0 | 0.0 | 0.00 | 0.00 | 0.00 | 66 | 1011.0 |
| 20260505023917 | 56 | 201 | 0.0 | 0.0 | 0.00 | 0.00 | 0.00 | 65 | 1011.1 |
| 20260505023414 | 56 | 201 | 0.0 | 0.0 | 0.00 | 0.00 | 0.00 | 65 | 1011.1 |
| 20260505022911 | 57 | 201 | 0.0 | 0.0 | 0.00 | 0.00 | 0.00 | 64 | 1011.0 |
| 20260505022408 | 57 | 201 | 0.0 | 0.0 | 0.00 | 0.00 | 0.00 | 63 | 1011.0 |
| 20260505021905 | 57 | 198 | 0.0 | 0.0 | 0.00 | 0.00 | 0.00 | 63 | 1011.0 |
| 20260505021401 | 57 | 198 | 0.0 | 0.0 | 0.00 | 0.00 | 0.00 | 62 | 1011.0 |
| 20260505020857 | 57 | 198 | 0.0 | 0.0 | 0.00 | 0.00 | 0.00 | 62 | 1011.0 |
| 20260505020353 | 57 | 198 | 0.0 | 0.0 | 0.00 | 0.00 | 0.00 | 62 | 1010.9 |
| 20260505015850 | 58 | 198 | 0.0 | 0.0 | 0.00 | 0.00 | 0.00 | 60 | 1011.0 |
| 20260505015347 | 59 | 198 | 0.0 | 0.0 | 0.00 | 0.00 | 0.00 | 60 | 1010.9 |
| 20260505014845 | 59 | 198 | 0.0 | 0.0 | 0.00 | 0.00 | 0.00 | 58 | 1010.7 |
| 20260505014341 | 60 | 198 | 0.0 | 0.0 | 0.00 | 0.00 | 0.00 | 57 | 1010.8 |
| 20260505013838 | 60 | 200 | 0.0 | 0.0 | 0.00 | 0.00 | 0.00 | 56 | 1010.9 |
| 20260505013335 | 60 | 204 | 0.0 | 0.0 | 0.00 | 0.00 | 0.00 | 56 | 1010.7 |
| 20260505012833 | 60 | 205 | 0.0 | 0.9 | 0.00 | 0.00 | 0.00 | 56 | 1010.7 |
| 20260505012331 | 60 | 184 | 0.0 | 0.0 | 0.00 | 0.00 | 0.00 | 56 | 1010.6 |
| 20260505011826 | 61 | 184 | 0.0 | 0.0 | 0.00 | 0.00 | 0.00 | 55 | 1010.6 |
| 20260505011324 | 62 | 184 | 0.0 | 0.0 | 0.00 | 0.00 | 0.00 | 52 | 1010.7 |
| 20260505010820 | 62 | 199 | 0.0 | 0.0 | 0.00 | 0.00 | 0.00 | 51 | 1010.4 |
| 20260505010316 | 63 | 199 | 0.0 | 0.0 | 0.00 | 0.00 | 0.00 | 50 | 1010.3 |
| 20260505005812 | 63 | 199 | 0.0 | 0.9 | 0.00 | 0.00 | 0.00 | 50 | 1010.3 |
| 20260505005309 | 64 | 200 | 0.0 | 0.0 | 0.00 | 0.00 | 0.00 | 49 | 1010.4 |
| 20260505004807 | 64 | 190 | 0.9 | 0.9 | 0.00 | 0.00 | 0.00 | 49 | 1010.2 |
| 20260505004302 | 65 | 210 | 0.0 | 0.0 | 0.00 | 0.00 | 0.00 | 48 | 1010.0 |
| 20260505003800 | 65 | 192 | 0.0 | 0.0 | 0.00 | 0.00 | 0.00 | 47 | 1010.3 |
| 20260505003257 | 66 | 218 | 0.0 | 0.0 | 0.00 | 0.00 | 0.00 | 46 | 1010.1 |
| 20260505002753 | 66 | 255 | 0.9 | 0.9 | 0.00 | 0.00 | 0.00 | 46 | 1010.1 |
| 20260505002251 | 66 | 256 | 1.7 | 1.7 | 0.00 | 0.00 | 0.00 | 46 | 1010.0 |
| 20260505001749 | 66 | 213 | 0.9 | 0.9 | 0.00 | 0.00 | 0.00 | 46 | 1010.0 |
| 20260505001246 | 66 | 204 | 0.0 | 0.0 | 0.00 | 0.00 | 0.00 | 46 | 1009.8 |
| 20260505000743 | 67 | 213 | 0.0 | 0.0 | 0.00 | 0.00 | 0.00 | 45 | 1009.5 |
| 20260505000241 | 67 | 207 | 0.0 | 0.9 | 0.00 | 0.00 | 0.00 | 45 | 1009.7 |
| 20260504235737 | 67 | 189 | 0.0 | 0.9 | 0.00 | 0.00 | 0.00 | 45 | 1009.7 |
| 20260504235233 | 68 | 222 | 0.9 | 0.9 | 0.00 | 0.00 | 0.00 | 44 | 1009.9 |
| 20260504234730 | 68 | 202 | 1.7 | 2.6 | 0.00 | 0.00 | 0.00 | 44 | 1009.5 |
| 20260504234228 | 68 | 230 | 0.9 | 0.9 | 0.00 | 0.00 | 0.00 | 43 | 1009.4 |
| 20260504233724 | 68 | 235 | 0.9 | 1.7 | 0.00 | 0.00 | 0.00 | 43 | 1009.3 |
| 20260504233220 | 69 | 68 | 0.9 | 0.9 | 0.00 | 0.00 | 0.00 | 43 | 1009.3 |
| 20260504232717 | 69 | 204 | 0.0 | 0.9 | 0.00 | 0.00 | 0.00 | 42 | 1009.1 |
| 20260504232214 | 69 | 177 | 0.0 | 0.9 | 0.00 | 0.00 | 0.00 | 43 | 1009.1 |
| 20260504231711 | 69 | 260 | 2.6 | 4.3 | 0.00 | 0.00 | 0.00 | 42 | 1009.1 |
| 20260504231207 | 69 | 184 | 0.9 | 0.9 | 0.00 | 0.00 | 0.00 | 42 | 1009.3 |
| 20260504230703 | 69 | 158 | 0.9 | 1.7 | 0.00 | 0.00 | 0.00 | 42 | 1008.8 |
| 20260504230202 | 69 | 219 | 2.6 | 2.6 | 0.00 | 0.00 | 0.00 | 42 | 1008.9 |
| 20260504225700 | 69 | 254 | 1.7 | 1.7 | 0.00 | 0.00 | 0.00 | 41 | 1008.8 |
| 20260504225156 | 70 | 229 | 0.9 | 0.9 | 0.00 | 0.00 | 0.00 | 40 | 1009.1 |
| 20260504224653 | 70 | 273 | 2.6 | 2.6 | 0.00 | 0.00 | 0.00 | 40 | 1008.9 |
| 20260504224150 | 70 | 323 | 0.0 | 0.9 | 0.00 | 0.00 | 0.00 | 40 | 1008.9 |
| 20260504223647 | 71 | 318 | 2.6 | 2.6 | 0.00 | 0.00 | 0.00 | 39 | 1009.0 |
| 20260504223142 | 71 | 115 | 2.6 | 2.6 | 0.00 | 0.00 | 0.00 | 39 | 1009.0 |
| 20260504222640 | 71 | 114 | 0.9 | 0.9 | 0.00 | 0.00 | 0.00 | 39 | 1009.0 |
| 20260504222136 | 71 | 99 | 0.0 | 0.9 | 0.00 | 0.00 | 0.00 | 40 | 1008.8 |
| 20260504221634 | 71 | 228 | 6.1 | 11.3 | 0.00 | 0.00 | 0.00 | 38 | 1008.8 |
| 20260504221131 | 71 | 184 | 3.5 | 5.2 | 0.00 | 0.00 | 0.00 | 39 | 1009.0 |
| 20260504220627 | 71 | 19 | 2.6 | 4.3 | 0.00 | 0.00 | 0.00 | 38 | 1009.1 |
| 20260504220125 | 72 | 142 | 0.0 | 0.9 | 0.00 | 0.00 | 0.00 | 39 | 1009.1 |
| 20260504215621 | 72 | 202 | 3.5 | 5.2 | 0.00 | 0.00 | 0.00 | 38 | 1009.2 |
| 20260504215119 | 71 | 232 | 2.6 | 2.6 | 0.00 | 0.00 | 0.00 | 37 | 1009.0 |
| 20260504214614 | 72 | 175 | 0.0 | 0.9 | 0.00 | 0.00 | 0.00 | 38 | 1009.4 |
| 20260504214111 | 71 | 177 | 0.0 | 0.9 | 0.00 | 0.00 | 0.00 | 38 | 1009.5 |
| 20260504213607 | 72 | 250 | 0.9 | 1.7 | 0.00 | 0.00 | 0.00 | 39 | 1009.3 |
| 20260504213104 | 71 | 192 | 2.6 | 2.6 | 0.00 | 0.00 | 0.00 | 38 | 1009.6 |
| 20260504212600 | 72 | 217 | 1.7 | 2.6 | 0.00 | 0.00 | 0.00 | 38 | 1009.4 |
| 20260504212057 | 74 | 198 | 4.3 | 9.6 | 0.00 | 0.00 | 0.00 | 36 | 1009.5 |
| 20260504211554 | 75 | 218 | 1.7 | 1.7 | 0.00 | 0.00 | 0.00 | 36 | 1009.5 |
| 20260504211051 | 75 | 336 | 2.6 | 2.6 | 0.00 | 0.00 | 0.00 | 35 | 1009.4 |
| 20260504210549 | 74 | 268 | 0.0 | 0.9 | 0.00 | 0.00 | 0.00 | 36 | 1009.3 |
| 20260504210045 | 72 | 329 | 1.7 | 1.7 | 0.00 | 0.00 | 0.00 | 38 | 1009.5 |
| 20260504205543 | 74 | 271 | 2.6 | 4.3 | 0.00 | 0.00 | 0.00 | 35 | 1009.4 |
| 20260504205041 | 74 | 232 | 2.6 | 2.6 | 0.00 | 0.00 | 0.00 | 36 | 1009.6 |
| 20260504204538 | 75 | 290 | 1.7 | 2.6 | 0.00 | 0.00 | 0.00 | 35 | 1009.4 |
| 20260504204037 | 74 | 214 | 1.7 | 2.6 | 0.00 | 0.00 | 0.00 | 36 | 1009.3 |
| 20260504203535 | 75 | 269 | 1.7 | 1.7 | 0.00 | 0.00 | 0.00 | 35 | 1009.2 |
| 20260504203032 | 73 | 267 | 0.9 | 0.9 | 0.00 | 0.00 | 0.00 | 36 | 1009.1 |
| 20260504202527 | 73 | 333 | 1.7 | 1.7 | 0.00 | 0.00 | 0.00 | 36 | 1009.4 |
| 20260504202025 | 74 | 229 | 1.7 | 2.6 | 0.00 | 0.00 | 0.00 | 36 | 1009.4 |
| 20260504201522 | 73 | 199 | 3.5 | 5.2 | 0.00 | 0.00 | 0.00 | 36 | 1009.3 |
| 20260504201020 | 74 | 24 | 2.6 | 4.3 | 0.00 | 0.00 | 0.00 | 35 | 1009.5 |
| 20260504200515 | 74 | 177 | 3.5 | 4.3 | 0.00 | 0.00 | 0.00 | 38 | 1009.5 |
| 20260504200013 | 73 | 271 | 3.5 | 5.2 | 0.00 | 0.00 | 0.00 | 36 | 1009.6 |
| 20260504195509 | 74 | 187 | 2.6 | 4.3 | 0.00 | 0.00 | 0.00 | 35 | 1009.6 |
| 20260504195005 | 74 | 275 | 4.3 | 8.7 | 0.00 | 0.00 | 0.00 | 34 | 1009.6 |
| 20260504194501 | 75 | 200 | 5.2 | 8.7 | 0.00 | 0.00 | 0.00 | 34 | 1009.8 |
| 20260504193957 | 74 | 116 | 2.6 | 4.3 | 0.00 | 0.00 | 0.00 | 35 | 1010.0 |
| 20260504193455 | 73 | 199 | 2.6 | 4.3 | 0.00 | 0.00 | 0.00 | 37 | 1009.7 |
| 20260504192953 | 73 | 117 | 0.9 | 1.7 | 0.00 | 0.00 | 0.00 | 37 | 1009.5 |
| 20260504192450 | 73 | 187 | 1.7 | 2.6 | 0.00 | 0.00 | 0.00 | 36 | 1009.7 |
| 20260504191949 | 74 | 181 | 0.9 | 0.9 | 0.00 | 0.00 | 0.00 | 36 | 1009.8 |
| 20260504191447 | 73 | 305 | 1.7 | 1.7 | 0.00 | 0.00 | 0.00 | 36 | 1010.1 |
| 20260504190942 | 74 | 53 | 3.5 | 6.1 | 0.00 | 0.00 | 0.00 | 36 | 1009.9 |
| 20260504190438 | 74 | 247 | 0.9 | 1.7 | 0.00 | 0.00 | 0.00 | 33 | 1009.8 |
| 20260504185934 | 73 | 319 | 5.2 | 6.1 | 0.00 | 0.00 | 0.00 | 34 | 1010.3 |
| 20260504185432 | 73 | 43 | 3.5 | 7.0 | 0.00 | 0.00 | 0.00 | 34 | 1010.2 |
| 20260504184927 | 74 | 271 | 2.6 | 4.3 | 0.00 | 0.00 | 0.00 | 35 | 1010.1 |
| 20260504184423 | 73 | 58 | 2.6 | 4.3 | 0.00 | 0.00 | 0.00 | 35 | 1010.3 |
| 20260504183920 | 71 | 102 | 4.3 | 7.0 | 0.00 | 0.00 | 0.00 | 36 | 1010.4 |
| 20260504183417 | 72 | 216 | 3.5 | 8.7 | 0.00 | 0.00 | 0.00 | 38 | 1010.4 |
| 20260504182915 | 73 | 227 | 3.5 | 6.1 | 0.00 | 0.00 | 0.00 | 35 | 1010.5 |
| 20260504182412 | 73 | 120 | 2.6 | 4.3 | 0.00 | 0.00 | 0.00 | 37 | 1010.7 |